DL7GAI-7 Weather Reports


time (UTC)temp
C
wind
direction
speed
KPH
gust
KPH
rain 1hr
cm
rain 24hr
cm
rain mn
cm
humidity
%
barometer
mb
20260508213724 13 315 6.4 14.5 0.00 0.00 0.00 68 1015.9
20260508212320 15 0 9.7 14.5 0.00 0.00 0.00 59 1015.2
20260508210955 15 0 9.7 14.5 0.00 0.00 0.00 59 1015.2
20260508205533 16 45 9.7 17.7 0.00 0.00 0.00 58 1014.9
20260508204320 16 45 9.7 17.7 0.00 0.00 0.00 58 1014.9
20260508203015 16 0 9.7 14.5 0.00 0.00 0.00 57 1014.4
20260508201700 16 0 9.7 14.5 0.00 0.00 0.00 57 1014.4
20260508200330 15 45 9.7 11.3 0.00 0.00 0.00 67 1014.0
20260508195024 15 45 9.7 11.3 0.00 0.00 0.00 67 1014.0
20260508193630 15 45 9.7 11.3 0.00 0.00 0.00 67 1014.0
20260508192355 15 45 6.4 9.7 0.00 0.00 0.00 66 1013.6
20260508191020 15 45 6.4 9.7 0.00 0.00 0.00 66 1013.6
20260508185640 18 45 6.4 11.3 0.00 0.00 0.00 48 1012.7
20260508184345 18 45 6.4 11.3 0.00 0.00 0.00 48 1012.7
20260508183045 20 45 8.0 17.7 0.00 0.00 0.00 43 1012.0
20260508181810 20 45 8.0 17.7 0.00 0.00 0.00 43 1012.0
20260508180414 20 45 8.0 17.7 0.00 0.00 0.00 43 1012.0
20260508175030 20 45 8.0 17.7 0.00 0.00 0.00 43 1012.0
20260508173740 20 45 8.0 17.7 0.00 0.00 0.00 43 1012.0
20260508172400 20 45 6.4 17.7 0.00 0.00 0.00 40 1012.0
20260508171115 20 45 6.4 17.7 0.00 0.00 0.00 40 1012.0
20260508165640 20 45 8.0 17.7 0.00 0.00 0.00 39 1012.1
20260508164340 20 45 8.0 17.7 0.00 0.00 0.00 39 1012.1
20260508163000 20 45 9.7 17.7 0.00 0.00 0.00 39 1012.3
20260508161730 20 45 9.7 17.7 0.00 0.00 0.00 39 1012.3
20260508160330 20 90 8.0 17.7 0.00 0.00 0.00 43 1012.6
20260508154956 20 90 8.0 17.7 0.00 0.00 0.00 43 1012.6
20260508153545 20 90 9.7 17.7 0.00 0.00 0.00 47 1012.9
20260508152310 20 90 9.7 17.7 0.00 0.00 0.00 47 1012.9
20260508150920 20 90 9.7 17.7 0.00 0.00 0.00 47 1012.9
20260508145520 19 90 11.3 22.5 0.00 0.00 0.00 44 1013.2
20260508144100 19 90 11.3 22.5 0.00 0.00 0.00 44 1013.2
20260508142755 19 45 11.3 19.3 0.00 0.00 0.00 48 1013.8
20260508141438 19 45 11.3 19.3 0.00 0.00 0.00 48 1013.8
20260508140140 18 90 9.7 22.5 0.00 0.00 0.00 50 1014.2
20260508134905 18 90 9.7 22.5 0.00 0.00 0.00 50 1014.2
20260508133550 18 90 8.0 22.5 0.00 0.00 0.00 52 1014.4
20260508132350 18 90 8.0 22.5 0.00 0.00 0.00 52 1014.4
20260508131038 18 90 8.0 22.5 0.00 0.00 0.00 52 1014.4
20260508125830 17 90 6.4 17.7 0.00 0.00 0.00 58 1014.6
20260508124505 17 90 6.4 17.7 0.00 0.00 0.00 58 1014.6
20260508123105 16 90 6.4 14.5 0.00 0.00 0.00 57 1015.1
20260508121715 16 90 6.4 14.5 0.00 0.00 0.00 57 1015.1
20260508120300 16 135 6.4 16.1 0.00 0.00 0.00 60 1015.4
20260508114930 16 135 6.4 16.1 0.00 0.00 0.00 60 1015.4
20260508113555 15 135 6.4 14.5 0.00 0.00 0.00 62 1015.8
20260508112120 15 135 6.4 14.5 0.00 0.00 0.00 62 1015.8
20260508110855 15 135 6.4 14.5 0.00 0.00 0.00 62 1015.8
20260508105445 15 90 9.7 16.1 0.00 0.00 0.00 64 1015.9
20260508104131 15 90 9.7 16.1 0.00 0.00 0.00 64 1015.9
20260508102815 15 180 3.2 14.5 0.00 0.00 0.00 65 1016.2
20260508101440 15 180 3.2 14.5 0.00 0.00 0.00 65 1016.2
20260508100140 14 45 4.8 14.5 0.00 0.00 0.00 66 1016.2
20260508094755 14 45 4.8 14.5 0.00 0.00 0.00 66 1016.2
20260508093420 13 90 9.7 14.5 0.00 0.00 0.00 67 1016.3
20260508092140 13 90 9.7 14.5 0.00 0.00 0.00 67 1016.3
20260508090820 13 90 9.7 14.5 0.00 0.00 0.00 67 1016.3
20260508085431 12 0 3.2 11.3 0.00 0.00 0.00 73 1016.5
20260508084040 12 0 3.2 11.3 0.00 0.00 0.00 73 1016.5
20260508082555 12 270 3.2 11.3 0.00 0.00 0.00 74 1016.4
20260508081130 12 270 3.2 11.3 0.00 0.00 0.00 74 1016.4
20260508075905 11 225 3.2 6.4 0.00 0.00 0.00 76 1016.6
20260508074630 11 225 3.2 6.4 0.00 0.00 0.00 76 1016.6
20260508073135 10 270 3.2 6.4 0.00 0.00 0.00 78 1016.9
20260508071805 10 270 3.2 6.4 0.00 0.00 0.00 78 1016.9
20260508070520 10 315 3.2 8.0 0.00 0.00 0.00 84 1016.7
20260508065218 10 315 3.2 8.0 0.00 0.00 0.00 84 1016.7
20260508063840 10 315 3.2 8.0 0.00 0.00 0.00 84 1016.7
20260508062500 8 0 3.2 6.4 0.00 0.03 0.00 89 1016.9
20260508061140 8 0 3.2 6.4 0.00 0.03 0.00 89 1016.9
20260508055705 6 0 1.6 6.4 0.00 0.03 0.00 93 1017.0
20260508054410 6 0 1.6 6.4 0.00 0.03 0.00 93 1017.0
20260508053020 5 315 3.2 6.4 0.00 0.03 0.00 95 1016.8
20260508051600 5 315 3.2 6.4 0.00 0.03 0.00 95 1016.8
20260508050245 5 315 3.2 6.4 0.00 0.03 0.00 95 1016.8
20260508044911 5 315 3.2 6.4 0.00 0.03 0.00 95 1016.8
20260508043442 6 0 1.6 6.4 0.00 0.03 0.00 95 1016.6
20260508042105 6 0 1.6 6.4 0.00 0.03 0.00 95 1016.6
20260508040747 6 0 1.6 6.4 0.00 0.03 0.00 95 1016.6
20260508035431 6 0 1.6 6.4 0.00 0.03 0.00 95 1016.6
20260508034222 6 0 1.6 6.4 0.00 0.03 0.00 95 1016.6
20260508032903 6 0 3.2 6.4 0.00 0.03 0.00 93 1016.5
20260508031603 6 0 3.2 6.4 0.00 0.03 0.00 93 1016.5
20260508030315 6 0 1.6 8.0 0.00 0.03 0.00 92 1016.4
20260508024849 6 0 1.6 8.0 0.00 0.03 0.00 92 1016.4
20260508023425 7 0 0.0 8.0 0.00 0.03 0.00 89 1016.3
20260508022130 7 0 0.0 8.0 0.00 0.03 0.00 89 1016.3
20260508020745 7 0 0.0 8.0 0.00 0.03 0.00 89 1016.3
20260508015451 7 0 3.2 8.0 0.00 0.03 0.00 93 1016.3
20260508014201 7 0 3.2 8.0 0.00 0.03 0.00 93 1016.3
20260508012745 7 315 4.8 6.4 0.00 0.03 0.00 92 1016.3
20260508011405 7 315 4.8 6.4 0.00 0.03 0.00 92 1016.3
20260508010130 9 135 1.6 9.7 0.00 0.03 0.00 83 1016.1
20260508004909 9 135 1.6 9.7 0.00 0.03 0.00 83 1016.1
20260508003509 10 90 4.8 9.7 0.00 0.03 0.03 83 1016.3
20260508002100 10 90 4.8 9.7 0.00 0.03 0.03 83 1016.3
20260508000705 10 90 4.8 9.7 0.00 0.03 0.03 83 1016.3
20260507235430 10 0 8.0 25.7 0.00 0.03 0.03 81 1016.6
20260507234117 10 0 8.0 25.7 0.00 0.03 0.03 81 1016.6
20260507232755 11 45 9.7 25.7 0.00 0.03 0.03 78 1016.4
20260507231430 11 45 9.7 25.7 0.00 0.03 0.03 78 1016.4
20260507230100 11 45 11.3 22.5 0.00 0.03 0.03 76 1016.2
20260507224635 11 45 11.3 22.5 0.00 0.03 0.03 76 1016.2
20260507223245 12 45 11.3 17.7 0.00 0.03 0.03 74 1015.9
20260507221900 12 45 11.3 17.7 0.00 0.03 0.03 74 1015.9
20260507220503 12 45 8.0 17.7 0.00 0.03 0.03 75 1015.9
20260507215136 12 45 8.0 17.7 0.00 0.03 0.03 75 1015.9